Starlink 4482

operational
NORAD ID: 53530 Int'l Des: 2022-101 Owner: SPXS Country: US Constellation: starlink
LEOCIRCULAR

Über Starlink 4482

Beschreibung wird geladen...

Live-Position

3D-Globus wird geladen...

Nächste Überflüge

Höhenverlauf

Altitude vs Time

uPlot chart will show altitude changes over time

Zweizeiliger Elementsatz

1 53530U 22101D 25257.38962392 -.00001807 00000-0 -95514-4 0 9991
2 53530 53.2169 145.7850 0001314 89.6711 270.4432 15.08826116169540
Epoch: 14. Sept. 2025 • Age: 22 hours

Aktueller Status

Höhe 540.3 km
Geschwindigkeit 7.60 km/s
Subsatellitenpunkt 24.34°N, 50.56°E
Startdatum 19. Aug. 2022
Alter 3 years
Typ internet

Technische Details

Klassifizierung Payload
Masse 300.00 kg
Trockenmasse 290.00 kg
Gesamtmasse 300.00 kg
Länge 0.20 m
Durchmesser 2.80 m
Spannweite 9.00 m
Form Box + pan
Hersteller SPXS
Bus-Typ Starlink
Phasenstatus In Orbit
Besitzer/Staat SPXS/US

Große Konstellationen

Loading constellations...